Location: Bacea
(45.9500°N, 22.6667°E)
Time: 19:41:22
(UTC+00:00)

Envisat - Pass Details

Date: 30 January 2022
Orbit: 764 x 765 km, 98.2° (Epoch: 22 May)

Event Time Altitude Azimuth Distance (km) Brightness Sun altitude
Rises 01:49:43 0° 34° (NE) 3,240 6.8 -42.2°
Reaches altitude 10° 01:53:54 10° 68° (ENE) 2,307 6.1 -41.5°
Maximum altitude 01:55:30 11° 86° (E) 2,208 6.0 -41.3°
Drops below altitude 10° 01:57:06 10° 105° (ESE) 2,302 6.0 -41.0°
Sets 02:01:14 0° 138° (SE) 3,221 6.5 -40.3°
